Location: Alaincourt
(47.9419°N, 6.1013°E)
Time: 19:12:23
(UTC+00:00)

Daily predictions for brighter satellites

Satellite Brightness Start Highest point End
(mag) Time Altitude Azimuth Time Altitude Azimuth Time Altitude Azimuth
CZ-2D R/B 3.2 17:11:43 10° SSE 17:15:30 67° ENE 17:19:21 10° N
Cosmos 1536 Rocket 3.6 17:11:10 10° N 17:15:32 86° W 17:19:52 10° S
Cosmos 1937 Rocket 4.4 17:11:20 10° SW 17:16:21 53° WNW 17:21:24 10° NNE
Cosmos 1048 Rocket 4.1 17:13:38 10° NNW 17:19:00 66° ENE 17:24:17 10° SSE
CZ-4C R/B 4.0 17:16:57 10° NE 17:19:50 24° E 17:22:39 10° SSE
Cosmos 2298 Rocket 4.4 17:17:10 10° S 17:22:09 43° ESE 17:27:09 10° NE
H-2A R/B 3.4 17:18:27 10° SE 17:22:17 30° ENE 17:26:03 10° N
MOS 1-B 4.4 17:17:09 10° SSE 17:22:58 89° W 17:28:48 10° NNW
Cosmos 2297 Rocket 3.0 17:17:41 10° NW 17:23:14 59° WSW 17:28:45 10° S
Cosmos 1980 Rocket 3.0 17:18:56 10° SSE 17:23:41 29° ESE 17:28:29 10° NE
Cosmos 389 Rocket 3.2 17:22:22 10° SSE 17:25:22 30° E 17:28:23 10° NNE
Cosmos 2263 Rocket 3.1 17:20:39 10° NNW 17:25:29 29° NE 17:30:17 10° ESE
Cosmos 2218 Rocket 4.1 17:20:01 10° S 17:26:17 85° E 17:32:39 10° N
SL-8 Rocket 4.3 17:26:00 10° SSW 17:32:19 75° W 17:38:40 10° N
Cosmos 1656 3.9 17:26:51 10° SW 17:32:22 72° WNW 17:37:51 10° NNE
Cosmos 1821 Rocket 4.3 17:26:33 10° SSE 17:32:35 46° E 17:38:38 10° NNE
X-37B 2.3 17:31:12 10° SSW 17:33:42 21° SSE 17:35:50 12° ESE
Genesis I 3.3 17:31:24 10° NW 17:35:31 71° NE 17:39:34 10° SE
deb Chang Zheng 4 3.7 17:31:29 10° S 17:35:40 75° WSW 17:39:54 10° NNW
ARGOS 3.2 17:31:19 10° SSE 17:36:35 58° ENE 17:41:53 10° N
Cosmos 405 3.7 17:36:09 10° SSW 17:39:31 54° WNW 17:42:55 10° N
Cosmos 1697 Rocket 2.7 17:36:27 10° SSW 17:42:05 72° ESE 17:47:44 10° NNE
CZ-4 R/B 4.4 17:38:01 10° SSE 17:42:08 66° ENE 17:46:15 10° N
Cosmos 1125 Rocket 3.6 17:37:08 10° S 17:42:13 53° ESE 17:47:20 10° NNE
Cosmos 1908 3.5 17:42:08 10° SSE 17:45:50 44° E 17:49:33 10° NNE
Cosmos 1607 3.9 17:40:54 10° NW 17:47:14 74° NE 17:53:25 10° SE
Cosmos 2098 4.0 17:44:35 10° S 17:47:34 71° E 17:50:39 10° NNE
Cosmos 1356 4.0 17:44:26 10° NNW 17:47:47 60° W 17:51:08 10° S
Cosmos 2227 Rocket 3.2 17:44:11 10° NW 17:49:39 50° WSW 17:55:05 10° S
Iridium 4 Rocket 3.7 17:47:32 10° NNE 17:51:31 34° E 17:55:44 10° SE
SJ-11-01 4.2 17:47:08 10° SSE 17:51:48 79° ENE 17:56:32 10° NNW
Cosmos 494 Rocket 4.1 17:47:29 10° NNW 17:52:45 84° WSW 17:57:56 10° SSE
Landsat 5 3.5 17:48:43 10° NNE 17:53:02 78° ESE 17:57:27 10° S
Cosmos 2278 4.2 17:47:55 10° S 17:53:02 37° ESE 17:58:12 10° NE
Gbstr 26 Del rocket 4.4 17:47:55 10° WNW 17:54:59 76° NNE 18:01:28 17° ESE
MOS 1-B Rocket 4.2 17:47:56 10° NNE 17:55:06 67° E 18:01:12 10° S
CZ-2C R/B 2.7 17:49:42 10° NNE 17:55:21 70° ESE 18:00:54 10° S
SKYMED 2 3.5 17:51:38 10° NNE 17:56:01 89° ESE 18:00:21 10° SSW
Cosmos 1934 Rocket 4.3 17:52:45 10° SSE 17:58:20 39° E 18:03:53 10° NNE
USA 215 4.0 17:54:45 10° ENE 18:00:51 44° NNW 18:07:00 10° W
Cosmos 1844 Rocket 4.3 17:57:29 10° N 18:00:55 16° NE 18:02:40 14° ENE
Okean O Rocket 2.1 17:58:09 10° S 18:02:27 63° WSW 18:06:47 10° NNW
Cosmos 2084 Rocket 4.1 17:59:40 10° WSW 18:03:26 46° NW 18:07:14 10° NNE
Meteor 1-16 Rocket 4.3 17:59:40 10° S 18:05:31 66° E 18:11:19 10° NNE
Cosmos 2123 Rocket 4.2 18:00:11 10° N 18:06:23 52° ENE 18:12:31 10° SSE
Cosmos 1758 4.4 18:03:49 10° SSW 18:07:41 48° WNW 18:11:33 10° N
Cosmos 1703 3.1 18:03:54 10° N 18:07:52 74° E 18:11:45 10° SSE
CZ-4 R/B 1.3 18:04:42 10° SSE 18:08:37 66° ENE 18:12:38 10° N
DMSP B5D2-2 4.4 18:03:56 10° NNE 18:08:55 42° E 18:13:52 10° SSE
YAOGAN 1 2.5 18:05:07 10° SSE 18:09:25 68° ENE 18:13:43 10° N
SL-16 R/B 3.7 18:06:49 10° SE 18:08:50 16° SE 18:08:50 16° SE
Okean-O 3.0 18:07:42 15° SE 18:11:06 42° ENE 18:15:18 10° N
Cosmos 1455 Rocket 3.0 18:09:48 10° S 18:14:08 60° E 18:18:31 10° NNE
Cosmos 2082 4.2 18:09:20 10° NNW 18:14:54 62° WSW 18:20:25 10° SSE
Spot 2 4.2 18:13:36 10° S 18:17:39 73° WSW 18:21:52 10° NNW
Cosmos 1953 2.3 18:14:13 10° S 18:18:16 88° WNW 18:22:21 10° N
H-2A R/B 2.1 18:15:17 10° NNE 18:19:16 47° E 18:23:14 10° S
Okean 1-7 Rocket 3.6 18:16:56 10° N 18:21:16 54° ENE 18:24:34 16° SSE
Cosmos 2150 Rocket 4.4 18:16:26 10° SSW 18:21:51 69° WNW 18:27:15 10° NNE
Cosmos 1328 3.8 18:18:19 10° N 18:22:18 59° ENE 18:25:11 18° SSE
Cosmos 1544 Rocket 3.7 18:23:05 10° SSE 18:27:22 48° E 18:31:42 10° NNE
H-2A R/B 3.9 18:27:00 10° SSW 18:31:48 34° W 18:36:42 10° NNW
ATLAS 3B R/B 3.2 18:28:55 10° WSW 18:35:24 59° NW 18:42:14 10° NE
Cosmos 1300 4.3 18:31:48 10° S 18:38:00 19° NNE 18:39:15 10° NNE
Lacrosse 4 Rocket 2.9 18:33:04 10° N 18:36:04 22° NE 18:36:04 22° NE
OBJECT-B 3.2 18:39:30 13° N 18:39:30 13° N 18:40:00 10° N
Cosmos 405 Rocket 3.1 18:33:35 10° NNW 18:37:28 65° W 18:41:25 10° S
COSMO-SKYMED 1 4.4 18:40:07 10° N 18:43:57 31° WNW 18:47:48 10° SW
ATLAS 5 CENTAUR R/B 1.2 18:41:25 10° SSW 18:45:18 69° SE 18:45:39 64° E
OPS 6432 4.3 18:42:35 10° NW 18:45:27 72° WSW 18:45:27 72° WSW
Cosmos 1602 Rocket 4.0 18:45:20 10° N 18:48:53 45° NE 18:48:53 45° NE
Cosmos 2227 4.1 18:46:37 10° NNW 18:52:26 87° ENE 18:55:04 34° SSE
Cosmos 2369 4.5 18:47:44 10° SW 18:53:16 52° NW 18:58:49 10° NNE
SL-8 R/B 4.4 18:49:56 10° SW 18:53:45 36° SSE 18:53:45 36° SSE
IRS-1C Rocket 4.4 18:51:32 10° S 18:56:45 64° WSW 19:02:00 10° NNW
H-2A R/B 4.4 18:53:46 10° SSW 18:57:41 31° W 19:01:32 10° NNW
Cosmos 1605 Rocket 3.9 18:51:45 10° S 18:57:54 69° E 19:04:12 10° NNE
In-Cosmos 22 Rocket 4.1 18:54:26 10° N 18:59:42 55° ENE 18:59:42 55° ENE
CENTAUR R/B 4.5 18:55:37 10° NW 19:01:15 24° N 19:06:08 14° NE
Cosmos 1535 Rocket 4.5 18:56:27 10° S 19:02:40 83° W 19:09:03 10° N
Cosmos 1447 Rocket 4.3 19:00:25 10° N 19:06:34 67° E 19:07:59 51° SE
Cosmos 1980 Rocket 2.9 19:01:53 10° SW 19:07:24 52° WNW 19:12:59 10° NNE
Meteor 2-10 Rocket 3.8 19:03:04 10° S 19:09:28 56° ENE 19:14:06 10° NNE
Cosmos 2263 Rocket 2.7 19:04:18 10° NW 19:09:45 57° WSW 19:12:46 26° S
X-37B 2.9 19:06:53 10° WSW 19:08:08 21° WSW 19:08:08 21° WSW
CSL-04 Debris 4.4 19:08:41 20° S 19:12:27 66° WSW 19:17:51 10° NNW
Cosmos 2251 Rocket 4.0 19:20:29 10° NNW 19:24:31 48° NNE 19:24:31 48° NNE
Cosmos 1626 Rocket 4.4 19:23:43 10° NNW 19:27:51 46° W 19:28:11 45° WSW
CSL-04 Rocket 4.5 19:30:11 24° SSW 19:33:17 50° W 19:38:41 10° NNW
Ariane Rocket 4.2 19:41:05 33° N 19:41:05 33° N 19:43:55 10° N
Orbus 7S? 4.4 19:34:54 10° NW 19:41:55 63° NW 19:41:55 63° NW
USA 215 3.9 19:42:03 39° NNE 19:43:07 42° N 19:49:12 10° WNW
CZ-4 R/B 4.5 19:42:25 10° WSW 19:44:05 12° W 19:45:46 10° WNW
Cosmos 1844 Rocket 3.4 19:40:21 10° NNW 19:44:21 46° N 19:44:21 46° N
Cosmos 2278 Rocket 4.2 19:44:30 10° N 19:46:37 16° NNE 19:46:37 16° NNE
SL-16 R/B 3.7 19:48:31 10° SSW 19:50:50 26° SW 19:50:50 26° SW
Resurs 01 Rocket 4.2 20:03:55 14° N 20:03:55 14° N 20:04:35 10° N
Cosmos 2344 4.3 20:04:07 10° NW 20:13:17 76° SW 20:15:56 58° S
Lacrosse 4 Rocket 4.1 20:11:14 10° NW 20:12:22 18° NW 20:12:22 18° NW
ATLAS 3B R/B 4.4 20:22:07 10° WNW 20:27:35 25° NNW 20:30:33 19° NNE
CENTAUR R/B 4.2 20:47:30 10° NW 20:53:17 33° N 20:53:17 33° N
